Location: Belvedere Heights
(33.9836°N, 117.3109°W)
Time: 17:31:57
(UTC+00:00)

Meteor 1-14 Rocket - Pass Details

Date: 21 March 2023
Orbit: 834 x 918 km, 81.3° (Epoch: 09 June)

Event Time Altitude Azimuth Distance (km) Brightness Sun altitude
Rises 12:58:06 0° 348° (NNW) 3,388 7.3 -11.9°
Reaches altitude 10° 13:00:31 10° 346° (NNW) 2,449 6.6 -11.4°
Maximum altitude 13:06:00 69° 265° (W) 896 4.1 -10.3°
Drops below altitude 10° 13:11:30 10° 183° (S) 2,453 6.5 -9.2°
Sets 13:13:56 0° 180° (S) 3,394 7.3 -8.7°
